Home   Weather   Zhengzhou   Past weeks

Flag for China Past Weather in Zhengzhou, Henan, China — Yesterday and Last 2 Weeks

Now
75 °F

Sunny.


Feels Like: 77 °F
Forecast: 72 / 93 °F
Wind: 6 mph from West

Location: Zhengzhou Airport

Current Time: Aug 31, 2016 at 8:33:19 AM

Latest Report: Aug 31, 2016 at 8:00 AM


Visibility: 10 mi

Pressure: 29.62 "Hg

Humidity: 65%

Dew Point: 63 °F

Location of ZhengzhouLocation

Past Weather in Zhengzhou — Graph

°F

Zhengzhou Temperature Yesterday

Maximum temperature yesterday: 86 °F (at 2:00 PM)
Minimum temperature yesterday: 64 °F (at 6:00 AM)
Average temperature yesterday: 76 °F

High & Low Weather Summary for the Past Weeks

 TemperatureHumidityPressure
High95 °F (Aug 18, 3:00 PM)100% (Aug 18, 5:00 AM)30.07 "Hg (Aug 18, 5:00 AM)
Low61 °F (Aug 29, 6:00 AM)17% (Aug 28, 4:00 PM)29.53 "Hg (Aug 18, 2:00 PM)
Average79 °F72%29.78 "Hg
* Reported Aug 16 7:00 AM — Aug 31 7:00 AM, Zhengzhou, Weather by CustomWeather, © 2016

Note: Actual official high and low records may vary slightly from our data, if they occured in-between our weather recording intervals... More about our weather records

Advertising

Zhengzhou Weather History for the Previous 24 Hours

Scroll right to see more
 ConditionsComfort  
Time TempWeatherWind HumidityBarometerVisibility
7:00 AM
Wed, Aug 31
72 °FSunny.3 mph69%29.62 "Hg10 mi
6:00 AM70 °FSunny.3 mph73%29.62 "Hg10 mi
5:00 AM72 °FClear.3 mph69%29.59 "Hg10 mi
4:00 AM72 °FPassing clouds.3 mph65%29.62 "HgN/A
3:00 AM70 °FClear.1 mph73%29.62 "Hg10 mi
2:00 AM72 °FClear.1 mph65%29.65 "Hg10 mi
1:00 AM72 °FClear.1 mph61%29.65 "Hg10 mi
12:00 AM72 °FClear.1 mph65%29.68 "Hg10 mi
11:00 PM
Tue, Aug 30
73 °FClear.1 mph57%29.71 "Hg10 mi
10:00 PM75 °FClear.1 mph50%29.71 "Hg10 mi
9:00 PM77 °FPassing clouds.3 mph47%29.71 "HgN/A
8:00 PM77 °FClear.1 mph51%29.71 "Hg10 mi
7:00 PM79 °FClear.1 mph48%29.71 "Hg10 mi
6:00 PM82 °FPassing clouds.3 mph35%29.71 "HgN/A
5:00 PM84 °FPassing clouds.3 mph33%29.71 "HgN/A
4:00 PM86 °FPassing clouds.6 mph27%29.74 "HgN/A
3:00 PM86 °FSunny.3 mph31%29.74 "Hg10 mi
2:00 PM86 °FPassing clouds.3 mph31%29.77 "HgN/A
1:00 PM84 °FPassing clouds.6 mph33%29.80 "HgN/A
12:00 PM84 °FPassing clouds.3 mph40%29.83 "HgN/A
11:00 AM81 °FClear.3 mph45%29.86 "Hg5 mi
10:00 AM79 °FClear.6 mph45%29.86 "Hg5 mi
9:00 AM77 °FClear.3 mph51%29.86 "Hg5 mi
8:00 AM73 °FClear.1 mph74%29.86 "Hg4 mi
Weather by CustomWeather, © 2016

See weather overviewHow to use our weather pages